Time,TemperatureF,DewpointF,PressureIn,WindDirection,WindDirectionDegrees,WindSpeedMPH,WindSpeedGustMPH,Humidity,HourlyPrecipIn,Conditions,Clouds,dailyrainin,SolarRadiationWatts/m^2,SoftwareType,DateUTC
2013-02-04 00:20:00,21.0,14.0,30.20,NE,44,3.0,4.0,73,-99.99,,,-99.99,0.000000,,2013-02-04 08:20:00,
2013-02-04 01:11:00,21.0,14.0,30.20,NE,44,3.0,4.0,73,-99.99,,,-99.99,0.000000,,2013-02-04 09:11:00,
2013-02-04 01:20:00,18.0,11.0,30.21,East,91,4.0,5.0,73,-99.99,,,-99.99,0.000000,,2013-02-04 09:20:00,
2013-02-04 02:11:00,18.0,11.0,30.21,East,91,4.0,5.0,73,-99.99,,,-99.99,0.000000,,2013-02-04 10:11:00,
2013-02-04 02:20:00,18.0,12.0,30.20,NNE,32,0.0,2.0,76,-99.99,,,-99.99,0.000000,,2013-02-04 10:20:00,
2013-02-04 03:11:00,18.0,12.0,30.20,NNE,32,0.0,2.0,76,-99.99,,,-99.99,0.000000,,2013-02-04 11:11:00,
2013-02-04 03:20:00,16.0,10.0,30.19,ESE,107,2.0,3.0,75,-99.99,,,-99.99,0.000000,,2013-02-04 11:20:00,
2013-02-04 05:11:00,13.0,7.0,30.20,WSW,253,2.0,4.0,77,-99.99,,,-99.99,0.000000,,2013-02-04 13:11:00,
2013-02-04 05:20:00,13.0,7.0,30.18,WNW,297,2.0,4.0,77,-99.99,,,-99.99,0.000000,,2013-02-04 13:20:00,
2013-02-04 06:20:00,14.0,9.0,30.18,NE,48,1.0,2.0,81,-99.99,,,-99.99,0.000000,,2013-02-04 14:20:00,
2013-02-04 07:12:00,14.0,9.0,30.18,NE,48,1.0,2.0,81,-99.99,,,-99.99,0.000000,,2013-02-04 15:12:00,
2013-02-04 07:20:00,9.0,4.0,30.19,SE,144,3.0,4.0,79,-99.99,,,-99.99,19.000000,,2013-02-04 15:20:00,
2013-02-04 08:11:00,9.0,4.0,30.19,SE,144,3.0,4.0,79,-99.99,,,-99.99,19.000000,,2013-02-04 16:11:00,
2013-02-04 09:20:00,33.0,20.0,30.19,NW,321,3.0,4.0,58,-99.99,,,-99.99,356.000000,,2013-02-04 17:20:00,
2013-02-04 10:11:00,33.0,20.0,30.19,NW,321,3.0,4.0,58,-99.99,,,-99.99,356.000000,,2013-02-04 18:11:00,
2013-02-04 10:20:00,46.0,25.0,30.19,NE,55,1.0,3.0,44,-99.99,,,-99.99,491.000000,,2013-02-04 18:20:00,
2013-02-04 11:11:00,46.0,25.0,30.19,NE,55,1.0,3.0,44,-99.99,,,-99.99,491.000000,,2013-02-04 19:11:00,
2013-02-04 11:20:00,51.0,22.0,30.16,South,169,3.0,5.0,32,-99.99,,,-99.99,581.000000,,2013-02-04 19:20:00,
2013-02-04 12:12:00,51.0,22.0,30.16,South,169,3.0,5.0,32,-99.99,,,-99.99,581.000000,,2013-02-04 20:12:00,
2013-02-04 12:20:00,54.0,21.0,30.13,SE,127,2.0,5.0,28,-99.99,,,-99.99,623.000000,,2013-02-04 20:20:00,
2013-02-04 13:11:00,54.0,21.0,30.13,SE,127,2.0,5.0,28,-99.99,,,-99.99,623.000000,,2013-02-04 21:11:00,
2013-02-04 13:20:00,59.0,18.0,30.09,South,178,3.0,7.0,20,-99.99,,,-99.99,534.000000,,2013-02-04 21:20:00,
2013-02-04 14:12:00,59.0,18.0,30.09,South,178,3.0,7.0,20,-99.99,,,-99.99,534.000000,,2013-02-04 22:12:00,
2013-02-04 14:20:00,61.0,16.0,30.06,SE,126,2.0,7.0,17,-99.99,,,-99.99,496.000000,,2013-02-04 22:20:00,
2013-02-04 15:20:00,63.0,13.0,30.04,South,175,3.0,6.0,14,-99.99,,,-99.99,362.000000,,2013-02-04 23:20:00,
2013-02-04 16:11:00,63.0,13.0,30.04,South,175,3.0,6.0,14,-99.99,,,-99.99,362.000000,,2013-02-05 00:11:00,
2013-02-04 16:20:00,64.0,14.0,30.03,South,182,2.0,4.0,14,-99.99,,,-99.99,197.000000,,2013-02-05 00:20:00,
2013-02-04 17:11:00,64.0,14.0,30.03,South,182,2.0,4.0,14,-99.99,,,-99.99,197.000000,,2013-02-05 01:11:00,
2013-02-04 17:20:00,55.0,12.0,30.02,SSW,200,4.0,5.0,18,-99.99,,,-99.99,7.000000,,2013-02-05 01:20:00,
2013-02-04 18:11:00,55.0,12.0,30.02,SSW,200,4.0,5.0,18,-99.99,,,-99.99,7.000000,,2013-02-05 02:11:00,
2013-02-04 18:20:00,45.0,14.0,30.03,East,90,2.0,3.0,28,-99.99,,,-99.99,0.000000,,2013-02-05 02:20:00,
2013-02-04 19:11:00,45.0,14.0,30.03,East,90,2.0,3.0,28,-99.99,,,-99.99,0.000000,,2013-02-05 03:11:00,
2013-02-04 19:20:00,37.0,12.0,30.04,SSE,156,5.0,7.0,35,-99.99,,,-99.99,0.000000,,2013-02-05 03:20:00,
2013-02-04 20:11:00,37.0,12.0,30.04,SSE,156,5.0,7.0,35,-99.99,,,-99.99,0.000000,,2013-02-05 04:11:00,
2013-02-04 20:20:00,34.0,13.0,30.04,SE,136,2.0,5.0,40,-99.99,,,-99.99,0.000000,,2013-02-05 04:20:00,
2013-02-04 21:11:00,34.0,13.0,30.04,SE,136,2.0,5.0,40,-99.99,,,-99.99,0.000000,,2013-02-05 05:11:00,
2013-02-04 21:20:00,28.0,11.0,30.05,South,189,1.0,2.0,48,-99.99,,,-99.99,0.000000,,2013-02-05 05:20:00,
2013-02-04 22:11:00,28.0,11.0,30.05,South,189,1.0,2.0,48,-99.99,,,-99.99,0.000000,,2013-02-05 06:11:00,
2013-02-04 22:20:00,31.0,14.0,30.05,SSE,158,2.0,3.0,50,-99.99,,,-99.99,0.000000,,2013-02-05 06:20:00,
2013-02-04 23:11:00,31.0,14.0,30.05,SSE,158,2.0,3.0,50,-99.99,,,-99.99,0.000000,,2013-02-05 07:11:00,
2013-02-04 23:20:00,29.0,13.0,30.03,West,273,1.0,2.0,50,-99.99,,,-99.99,0.000000,,2013-02-05 07:20:00,